CZ-6A DEB

Satellite information

Favourite Embed

Satellite Type and Status

DEBRISIN ORBIT

Key statistics

Satellite CZ-6A DEB at a glance.

Uptime

1075

Days in orbit

Revolutions

≈ 13.9

Per day

Orbit

SSO

Sun Synchronous Orbit

Inclination

99.0

Latest

Satellite identification and parameters

Extended collection of information and parameters for CZ-6A DEB.

Object identification

Identified? True

Debris? True

Object name: CZ-6A DEB

International designator: 2022-151HV

Object number (NORAD): 54493

Object ID (CCSDS): 54493

Country: PEOPLES REPUBLIC OF CHINA (PRC)

Current information (Y/N): Y

RCS size: SMALL

Orbital parameters

Period: 103.753 minutes

Inclination: 98.9663 deg

SMA: 7314.114 km

Apoapsis: 1074.196 km

Periapsis: 797.762 km

RAAN: 262.5878 deg

Eccentricy: 0.0188973

Argument of periapsis: 29.8429 deg

Mean anomaly: 331.3347 deg

Mean motion: 13.87906313 rev/day

Mean motion (dot): 0.00004791 rev/day2

B* drag term: 0.0035260171 1/REarth

Two-line elements (TLE)

Creation date: Oct. 21, 2025, 3:26 a.m.

Reference frame: TEME

Reference center: EARTH

Epoch: Oct. 20, 2025, 8:05 p.m. UTC

TLE line 0: 0 CZ-6A DEB

TLE line 1: 1 54493U 22151HV 25293.83736659 .00004791 00000-0 35260-2 0 9993

TLE line 2: 2 54493 98.9663 262.5878 0188973 29.8429 331.3347 13.87906313147991

Live tracking on map

Real-time ground track for satellite CZ-6A DEB.

In-orbit conjunctions

A list of the most updated potential collisions computed for object CZ-6A DEB.

Target Orbit TCA Probability of collision Miss distance Type
NOAA 16 DEB SSO 2024-11-16 07:43:00 0.0002379749 779.0 (m) DEBRIS
CZ-6A DEB LEO 2024-11-01 21:13:11 0.0001511072 696.0 (m) DEBRIS

Associated space launch

Chinese satellite reported for atmospheric/ocean/environmental/spatial parameter research purposes, details TBD.

CZ-6A DEB was lifted into orbit during the mission ‘Long March 6A | Yunhai 3’, on board a Long March 6A space rocket.

The launch took place on Nov. 11, 2022, 10:52 p.m. from Launch Complex 9A.

For more information about the launch, click the button.

Launch to space Long March 6A | Yunhai 3
Long March 6A | Yunhai 3

Agency: N/A

Status: Launch Successful

Launch date: Nov. 11, 2022, 10:52 p.m. UTC

Rocket: Long March 6A

Launch pad: Launch Complex 9A

Location: Taiyuan Satellite Launch Center, People's Republic of China

...

Latest news about this satellite

There are no fresh news available about this satellite. Check back as we update our databases every day.


Newsletter sign-up

Weekly statistics, charts and insights to help you stay on top of the space industry.